Regional Weather Roundup
Issued by NWS State College, PA

Home | Current Version | Previous Version | Graphics & Text | Print | Product List | Glossary On
Versions: 1 2 3 4 5 6 7 8 9 10 11 12 13 14 15 16 17 18 19 20 21 22 23 24 25 26 27 28 29 30 31 32 33 34 35 36 37 38 39 40 41 42 43 44 45 46 47 48 49 50
000
ASUS41 KCTP 310903
RWRCTP

REGIONAL WEATHER ROUNDUP
NATIONAL WEATHER SERVICE STATE COLLEGE PA
500 AM EDT MON AUG 31 2015

Note: "fair" indicates few or no clouds below 12,000 feet with no
significant weather and/or obstructions to visibility.

* = STATION THAT DOES NOT REPORT PRECIPITATION /E.G. RAIN...SNOW...ETC/
    THUNDER OR FOG.

PAZ002>004-007>009-013>016-020>023-029>032-311000-
WESTERN PENNSYLVANIA

CITY           SKY/WX    TMP DP  RH WIND       PRES   REMARKS
ERIE           CLEAR     71  64  78 S5        30.04S
MEADVILLE      CLEAR     67  63  87 S3        30.09R
FRANKLIN*      CLEAR     64  61  88 SW3       30.11R
NEW CASTLE     FAIR      65  65 100 CALM      30.09S
BEAVER COUNTY  NOT AVBL
BUTLER*        PTCLDY    66  64  94 CALM      30.11S
PITTSBURGH INT MOCLDY    68  64  87 S3        30.09R
PITTSBURGH     PTCLDY    68  63  84 S7        30.09S
INDIANA*       MOCLDY    66  66 100 CALM      30.14R
LATROBE        NOT AVBL
WASHINGTON CO* NOT AVBL
$$

PAZ004>006-010>012-017>019-024>028-033>037-041-042-045-046-049>053-311000-
CENTRAL PENNSYLVANIA

CITY           SKY/WX    TMP DP  RH WIND       PRES   REMARKS
BRADFORD       PTCLDY    65  63  93 SW5       30.11S FOG
DUBOIS         PTCLDY    66  62  87 SW3       30.10S FOG
CLEARFIELD     PTCLDY    63  62  97 S3        30.11S FOG
JOHNSTOWN      MOCLDY    67  62  84 W5        30.14S
ALTOONA        MOCLDY    69  62  78 CALM      30.11S
STATE COLLEGE  PTCLDY    67  64  90 CALM      30.09S
WILLIAMSPORT   FOG       69  67  93 N3        30.05S VSB 3/4
SELINSGROVE    PTCLDY    65  63  93 CALM      30.06S FOG
FT INDIANTOWN  MOCLDY    66  65  96 N2        30.05S
CAPITAL CITY   CLOUDY    73  65  75 CALM      30.05S
HARRISBURG     CLOUDY    73  67  81 CALM      30.04S
YORK           CLOUDY    68  66  93 CALM      30.06S
$$

PAZ038>040-043-044-047-048-054-055-060>062-067>071-311000-
EASTERN PENNSYLVANIA

CITY           SKY/WX    TMP DP  RH WIND       PRES   REMARKS
SCRANTON       PTCLDY    68  64  87 CALM      30.06R
MOUNT POCONO   PTCLDY    67  63  87 W8        30.09S
ALLENTOWN      CLOUDY    71  67  87 CALM      30.04R
QUAKERTOWN*    CLOUDY    68  66  94 CALM      30.06R
READING        CLOUDY    72  66  81 CALM      30.04R
LANCASTER      CLOUDY    70  67  90 SW3       30.06R
COATESVILLE    CLOUDY    72  68  88 CALM      30.08R
POTTSTOWN      CLOUDY    73  69  87 CALM      30.06S
BLUE BELL      CLOUDY    73  70  88 CALM      30.05R
DOYLESTOWN     CLOUDY    71  68  90 SW3       30.04S
WILLOW GROVE   NOT AVBL
NORTH PHILA    CLOUDY    77  65  66 SW6       30.06R
PHILADELPHIA   CLOUDY    77  66  68 SW9       30.05R
$$


USA.gov is the U.S. government's official web portal to all federal, state and local government web resources and services.